Temp
9 9 9 9 9 9 10 9 9 10 11 11 11 11 11 12 12 12 11 11 11 10 10 11 11 11 12 12 13 13 14 14 13 13 14 16 17 18 17 19 20 20 21 23 22 22 23
10 10 10 9 9 9 9 9 9 9 10 11 12 12 12 12 12 11 11 11 11 10 11 11 11 12 13 13 12 12 13 13 13 14 14 15 18 19 19 19 20 21 21 22 22 22 24
10 10 10 10 9 9 8 9 9 9 9 11 12 12 12 12 12 12 11 10 11 11 11 11 11 12 12 12 12 12 12 13 13 14 14 14 13 16 20 19 21 21 20 21 21 22 22
10 10 10 10 9 9 9 8 9 9 10 11 12 12 12 12 13 12 12 11 10 11 11 11 11 12 11 12 13 12 12 12 12 12 14 13 14 15 17 19 20 20 20 18 21 21 21
10 10 10 10 9 9 8 8 8 9 9 11 12 12 13 13 14 13 12 12 10 11 11 11 11 11 11 11 13 12 12 13 12 12 13 14 12 15 18 16 18 19 18 19 19 21 20
9 9 9 9 9 9 8 8 8 8 9 11 12 12 13 13 14 14 13 12 11 10 11 11 11 10 10 10 12 11 11 13 13 13 13 14 12 12 15 15 15 17 19 21 19 19 21
9 9 8 9 9 8 8 8 8 8 9 11 12 12 13 13 14 14 14 12 12 13 14 11 12 10 10 9 10 11 10 11 13 13 12 12 12 12 15 17 19 20 20 21 20 20 20
8 8 8 8 9 8 8 8 8 8 9 11 12 12 13 13 13 13 13 14 11 11 13 13 13 12 10 10 10 11 10 11 11 12 13 12 12 15 18 19 19 20 21 20 18 20 20
8 8 8 8 8 8 8 8 8 8 11 12 12 12 13 13 13 13 13 11 10 10 13 14 14 14 12 12 10 10 10 10 10 11 11 13 15 17 18 19 19 20 20 18 18 19 21
8 8 8 8 8 8 8 9 9 9 11 11 12 12 12 13 13 14 13 10 10 10 13 13 13 15 14 13 12 12 10 11 11 11 14 13 17 18 18 19 17 18 19 21 18 17 16
8 8 8 8 8 8 8 8 8 8 11 11 12 12 12 12 12 14 11 10 10 10 12 17 15 16 16 15 14 12 11 11 14 13 12 15 16 17 18 16 16 18 20 19 19 20 17
8 8 7 8 8 8 8 8 8 8 10 11 11 12 12 13 13 12 11 10 11 13 11 16 17 16 14 13 13 14 13 13 15 15 15 15 16 15 16 17 18 17 20 20 20 19 14
8 8 7 7 7 7 8 8 8 8 9 11 11 12 12 12 13 12 11 12 13 12 16 16 16 17 16 17 15 15 15 15 14 13 13 16 15 15 16 17 17 17 18 14 14 13 14
8 8 7 7 7 7 7 7 10 11 11 11 12 12 12 11 12 11 12 14 12 15 16 17 17 17 17 17 17 16 16 15 17 17 13 13 13 14 15 15 15 16 17 14 16 14 13
7 8 8 8 7 8 8 10 11 11 11 12 12 12 12 12 11 10 13 12 12 16 16 15 17 18 17 18 17 18 16 16 15 15 14 13 13 15 15 16 16 17 16 18 15 15 13
7 7 8 7 7 8 8 10 11 12 12 12 12 14 15 13 11 11 14 14 15 15 15 16 17 18 17 17 18 18 17 15 15 16 16 17 13 15 16 15 16 15 16 16 15 16 18
7 7 8 8 8 8 8 9 10 12 12 12 12 15 13 13 12 13 13 14 16 16 15 15 16 17 17 17 17 18 17 15 15 15 15 17 16 15 16 16 16 16 17 18 17 16 17
8 8 8 8 8 8 9 9 10 11 13 12 13 16 14 13 15 16 14 15 12 16 16 16 16 17 17 17 17 17 16 14 14 14 16 16 17 12 16 15 15 15 16 17 16 18 15
8 8 8 8 8 8 9 9 10 11 12 10 14 16 15 14 16 14 15 15 15 16 15 16 16 16 17 17 16 17 15 15 14 14 13 13 17 11 15 14 15 14 17 17 18 15 17
8 9 9 9 8 8 9 9 10 11 12 11 14 15 16 16 16 17 17 16 16 14 15 16 16 16 17 18 17 17 16 15 14 14 12 13 16 15 14 15 16 16 16 16 17 13 17
9 9 9 9 9 9 9 9 10 12 13 12 14 14 13 15 15 17 17 17 17 16 16 16 17 16 16 17 18 16 17 15 15 15 15 14 13 13 15 15 15 15 16 15 16 16 15
10 9 9 9 9 9 9 9 10 13 13 14 13 13 13 15 16 16 15 16 16 15 14 16 15 16 15 14 14 15 14 14 14 16 16 15 13 14 14 15 15 14 15 16 15 16 16
10 10 10 9 9 9 9 9 10 12 13 14 13 13 13 13 16 16 15 15 15 15 14 14 14 15 14 13 13 14 14 13 13 13 14 14 13 12 15 15 15 15 14 14 15 15 16
10 10 10 11 10 9 9 9 9 10 11 11 10 11 13 16 15 15 16 16 15 14 15 14 13 14 12 13 13 14 15 15 14 13 13 14 14 12 10 14 14 16 13 14 15 16 15
10 10 10 10 10 10 9 9 10 9 10 10 9 10 12 14 15 15 15 15 14 14 14 13 12 11 13 13 12 14 13 14 13 12 12 12 13 12 11 14 17 14 13 14 14 16 16
10 9 9 10 9 10 9 9 9 9 9 9 9 9 10 12 13 15 15 15 14 15 13 12 11 12 12 12 14 15 15 15 14 12 12 12 13 12 13 14 17 16 14 15 15 14 15
8 9 9 9 9 9 9 9 9 9 9 9 9 9 9 12 12 12 13 13 14 14 13 12 11 11 12 12 13 14 14 14 14 16 13 12 12 12 13 13 14 15 13 14 16 14 14
6 7 8 9 9 9 9 9 9 8 9 9 8 9 9 10 11 11 11 12 12 12 13 11 11 11 11 11 12 13 13 13 13 15 14 13 11 11 13 14 11 13 13 14 13 14 14
5 6 7 7 9 9 9 8 8 8 8 8 9 8 9 8 9 9 8 8 8 8 9 11 11 12 11 12 11 11 12 12 13 14 13 12 14 14 13 13 14 12 15 13 12 12 13
Height
831 829 827 825 822 820 819 818 816 814 812 810 808 806 804 801 799 797 795 792 789 787 783 778 776 774 778 778 777 775 773 777 781 784 785 786 784 783 787 783 780 785 779 772 772 772 769
831 829 826 823 821 820 818 816 815 813 812 810 807 805 803 800 798 796 794 792 790 787 784 780 778 777 778 778 779 778 778 778 781 783 784 785 781 779 781 777 778 776 776 773 774 775 769
831 828 826 823 820 819 817 815 813 812 811 809 807 805 802 799 796 794 792 790 790 788 785 782 780 780 781 782 778 779 779 780 781 783 782 785 786 781 773 776 769 771 783 778 778 776 776
830 827 825 822 820 817 815 813 811 810 809 807 805 803 800 797 794 791 789 787 787 787 785 783 781 779 783 782 781 781 780 783 784 784 784 786 785 784 779 771 768 775 779 796 778 777 778
829 827 825 822 819 816 814 811 810 809 807 805 803 802 799 795 791 788 785 783 784 785 783 782 783 782 784 784 783 784 783 783 786 786 786 788 790 787 778 784 781 778 790 786 786 776 779
829 827 824 821 818 816 813 810 808 807 806 803 801 800 797 794 790 787 784 782 783 783 781 782 784 787 787 786 785 786 785 785 786 787 790 791 797 799 783 786 798 787 782 777 786 782 778
829 826 823 821 818 815 812 809 806 805 804 801 800 798 796 793 789 787 785 784 788 786 784 789 787 789 789 788 787 788 788 788 787 787 790 794 796 796 784 777 774 773 773 775 774 774 780
829 826 823 821 818 815 811 808 805 803 801 799 798 796 794 791 788 786 785 784 788 789 785 785 784 785 787 787 786 788 790 791 792 790 789 799 793 782 772 769 772 770 768 777 782 776 779
828 826 823 820 818 814 811 807 804 801 799 797 796 794 792 789 786 786 786 788 786 787 783 782 781 779 783 786 789 790 791 792 794 792 792 787 779 771 767 768 774 768 770 778 782 781 775
828 826 823 820 817 814 810 807 803 799 797 795 794 792 790 787 787 785 785 787 786 787 782 783 781 777 779 781 785 785 789 790 790 789 782 788 772 767 768 767 776 776 761 757 778 793 811
827 825 822 820 817 813 810 806 802 798 795 794 791 790 788 785 785 784 787 786 786 787 794 773 775 770 771 777 783 788 788 789 782 784 789 780 772 767 768 776 777 771 754 763 774 779 792
826 824 822 819 816 812 809 805 801 797 794 791 789 787 786 786 785 785 784 785 786 787 800 775 768 774 779 781 780 780 783 784 773 775 773 778 771 775 774 771 770 769 761 766 770 782 820
825 823 821 818 815 811 808 804 800 796 792 788 786 785 784 784 784 783 783 784 786 794 777 779 776 769 773 770 775 778 774 776 779 787 786 774 779 777 773 773 773 775 777 811 819 825 827
824 822 820 818 814 810 807 803 799 794 789 784 782 782 782 783 782 781 782 781 795 783 779 773 772 768 770 768 769 769 772 776 768 765 782 789 800 786 780 782 788 784 780 802 810 826 826
822 820 819 816 813 810 805 801 797 793 787 782 781 781 781 780 780 781 781 789 796 783 781 779 771 768 769 765 766 763 772 774 776 773 783 787 796 785 783 781 783 778 786 774 793 798 817
820 818 816 815 813 809 805 800 796 791 786 781 781 781 779 779 778 780 778 788 786 785 783 777 775 768 771 771 766 762 768 778 776 772 771 770 796 785 783 783 782 786 782 789 792 809 801
818 816 814 813 811 808 804 800 795 790 784 780 781 780 778 777 779 778 788 788 782 782 784 783 777 770 770 772 768 766 772 779 778 775 772 767 774 791 784 784 786 787 783 778 779 789 798
816 814 812 811 810 807 803 799 795 789 783 781 780 780 777 777 778 774 786 784 788 782 779 780 778 774 775 771 773 770 775 782 780 779 774 770 771 800 787 788 787 791 785 779 792 791 797
814 813 811 810 808 806 803 799 795 790 785 783 780 777 776 776 780 785 785 785 784 781 782 780 778 777 773 775 777 773 778 781 781 780 785 781 773 808 794 794 790 794 781 781 778 787 793
812 811 810 809 807 805 802 799 794 790 786 784 782 783 777 775 775 775 778 782 783 785 782 781 779 776 772 771 770 775 778 781 779 779 782 781 777 785 797 788 784 787 785 784 784 810 789
809 809 809 807 806 804 802 799 794 791 786 785 783 788 789 786 783 779 777 780 780 784 781 779 778 780 779 774 772 777 775 780 779 777 776 778 791 791 788 788 786 787 786 789 789 787 797
806 807 807 806 805 804 802 799 795 791 787 787 790 791 787 784 784 781 784 784 783 785 789 782 784 782 783 787 789 786 786 786 787 776 778 778 792 789 791 788 788 790 785 785 789 787 789
803 804 805 805 805 803 802 799 796 792 789 788 791 791 791 790 782 782 786 787 787 786 789 788 789 786 789 794 792 789 787 788 788 789 785 786 791 801 789 788 788 791 786 787 785 784 784
799 801 802 804 804 803 802 800 798 796 793 793 795 794 791 786 785 786 786 785 786 788 788 790 791 788 796 793 792 789 787 787 788 789 789 787 789 799 811 790 800 782 784 780 782 780 784
794 797 799 801 802 802 802 800 798 798 796 795 795 796 794 790 786 787 788 787 789 790 791 792 796 798 796 795 794 792 795 793 794 795 794 793 791 800 811 797 778 785 787 786 786 783 777
790 792 794 797 799 800 801 801 799 798 797 796 796 797 797 797 792 789 788 787 789 788 793 796 799 798 797 796 792 787 787 786 792 797 796 795 794 800 800 796 784 777 781 778 779 790 781
787 788 789 791 795 797 798 800 800 798 798 797 797 797 798 796 795 794 792 792 790 789 793 795 798 799 798 795 796 794 790 792 791 785 795 800 798 802 799 799 787 778 782 781 786 792 783
786 786 786 787 790 793 795 798 799 799 797 796 798 798 799 798 795 797 797 795 794 794 792 799 799 800 800 801 798 794 796 795 793 784 787 793 802 804 796 796 807 781 785 786 784 781 782
784 786 787 787 786 790 792 795 797 799 797 794 797 799 799 800 799 798 798 799 800 801 801 797 799 795 799 798 799 798 798 797 791 792 786 797 784 786 787 787 773 776 774 776 778 782 782
Wind_Speed
8 8 9 10 10 10 10 10 10 9 9 10 13 15 15 14 14 13 12 11 10 10 11 8 4 13 10 7 4 10 13 16 14 16 17 14 14 12 12 13 12 16 11 9 5 5 7
10 10 11 12 11 11 10 11 10 10 10 10 12 13 14 14 14 15 12 9 9 9 14 10 3 7 1 6 4 5 7 15 13 15 14 11 8 12 10 12 14 12 17 5 2 6 3
11 12 12 13 13 12 11 10 12 11 10 10 12 13 14 15 16 17 13 11 7 7 11 15 3 1 9 3 2 2 2 11 11 11 9 2 10 5 5 10 12 11 10 5 6 6 3
11 12 13 13 14 13 12 11 11 12 11 11 12 14 15 17 19 17 14 12 12 6 7 10 8 3 3 5 5 3 5 4 3 2 4 4 12 7 3 9 7 15 8 6 8 9 3
10 12 14 15 15 14 13 12 11 11 11 11 12 13 16 19 22 17 17 8 12 8 8 5 5 5 3 4 2 2 4 7 6 3 7 4 6 5 5 4 6 8 8 11 6 9 5
11 12 14 15 15 15 13 12 11 11 12 11 12 13 15 18 21 16 14 4 2 5 6 4 2 4 1 2 4 3 4 7 3 8 4 2 4 5 4 5 7 11 13 14 7 6 5
10 13 14 15 16 16 14 13 12 11 11 11 11 12 14 17 19 11 12 1 3 2 11 4 6 3 1 1 3 6 5 4 4 3 7 4 4 9 10 10 9 13 16 12 8 8 6
10 12 13 15 16 16 16 14 13 12 12 11 11 12 14 16 17 10 6 3 1 2 3 4 1 7 8 4 2 5 4 2 1 6 9 6 12 16 15 11 14 15 16 8 7 5 2
10 12 13 15 15 16 16 16 15 14 12 11 12 13 14 15 14 4 4 3 1 1 3 5 2 2 5 6 4 4 5 3 2 7 12 10 8 12 7 7 10 15 8 7 8 5 2
9 11 12 14 15 16 16 17 16 14 11 12 12 12 13 15 5 5 3 2 0 3 2 5 3 1 6 4 3 16 17 1 2 3 13 4 8 9 7 4 5 11 1 10 14 6 4
9 10 12 13 14 16 17 17 17 16 13 12 12 11 11 9 7 4 3 3 2 2 3 5 5 10 5 3 8 2 10 6 3 10 5 3 5 7 6 3 3 5 3 10 9 5 7
10 11 11 13 14 15 16 17 18 18 17 13 11 10 10 2 3 3 6 1 2 1 3 2 2 6 4 9 2 8 8 12 3 7 5 2 3 5 3 2 1 8 2 7 5 4 3
7 10 11 12 13 15 16 17 18 19 20 16 12 8 6 3 3 6 4 3 1 4 4 3 3 2 5 4 8 9 6 4 2 3 2 5 4 2 2 4 6 3 2 2 3 3 4
7 9 11 13 14 16 16 17 20 23 24 17 8 4 2 4 5 4 2 2 6 3 5 2 3 7 1 2 3 8 7 4 3 1 3 4 0 7 6 4 1 5 1 4 6 5 4
9 9 10 12 14 16 18 18 21 24 26 10 3 2 2 6 5 1 2 4 2 3 3 6 7 3 1 2 1 3 4 3 4 6 2 5 3 2 4 3 2 4 2 2 6 2 4
11 10 10 12 13 16 18 19 21 25 25 7 1 3 4 6 2 3 1 3 2 3 5 4 4 3 3 5 3 3 3 2 3 2 1 4 5 3 2 3 2 2 5 2 3 4 3
11 11 10 11 13 14 17 20 22 26 22 5 1 3 1 1 3 2 3 2 2 3 2 4 6 5 3 4 4 3 5 3 7 6 7 5 5 1 1 1 3 2 3 2 1 3 3
6 7 7 9 10 13 16 19 23 26 23 5 3 1 2 3 0 2 2 3 2 2 2 2 3 4 5 5 5 4 4 6 6 6 5 4 4 4 3 3 2 3 4 3 3 1 1
7 5 6 8 11 12 15 18 21 24 22 5 3 1 2 2 1 2 1 2 3 3 3 4 3 4 3 3 1 4 5 3 5 5 3 6 3 4 3 2 1 4 2 3 2 3 3
7 6 6 7 10 14 15 18 19 22 18 3 2 1 1 1 2 2 2 2 3 1 0 3 3 4 4 2 3 3 2 1 1 2 3 2 4 4 3 2 1 3 3 3 2 3 2
9 7 6 8 9 13 15 18 18 19 15 2 1 1 1 3 4 3 1 2 1 2 1 2 1 6 4 3 1 3 1 4 2 1 2 2 3 3 4 3 3 3 4 4 3 2 2
10 9 9 9 9 11 14 18 19 17 8 4 3 3 1 1 2 6 2 3 4 2 5 3 4 5 8 5 5 6 7 6 4 3 3 4 1 2 2 1 0 1 4 6 5 3 4
14 11 8 9 10 10 12 15 19 16 6 5 3 1 1 1 1 3 2 3 4 3 2 4 5 5 6 3 5 3 3 3 3 4 4 3 2 2 1 1 4 4 6 8 5 6 5
15 12 11 9 10 10 9 12 15 14 12 5 3 2 2 1 2 3 1 2 3 3 2 2 6 4 1 1 4 4 2 2 4 4 3 1 2 1 2 2 2 1 5 2 4 2 7
22 21 19 14 11 11 8 8 10 12 10 7 5 3 3 3 2 3 1 2 3 3 2 3 3 2 2 3 2 2 1 1 2 4 5 5 3 1 2 2 2 3 2 3 4 2 4
16 15 18 17 14 12 9 6 6 9 8 6 8 5 2 2 2 4 1 1 2 3 3 3 2 1 2 2 1 2 1 2 1 1 1 3 2 2 1 1 2 2 4 0 0 2 4
9 10 12 15 16 13 11 8 4 4 6 4 4 6 1 2 3 4 1 2 3 2 2 2 3 2 1 1 1 1 1 0 1 1 2 1 1 1 1 1 4 2 4 1 2 4 4
3 1 4 8 15 15 13 10 6 2 4 4 2 5 2 2 2 4 5 3 1 2 2 0 2 2 1 1 1 1 1 0 2 2 3 4 5 3 1 1 6 5 3 5 4 2 4
4 1 1 2 7 14 14 12 8 6 1 5 3 4 2 1 1 0 1 1 1 2 2 1 1 1 1 1 1 1 1 1 2 3 2 2 4 3 6 5 1 7 3 4 3 3 1
Wind_Direction
357 352 342 339 342 345 334 331 335 338 341 354 352 348 351 350 346 335 342 355 357 351 1 359 52 104 129 192 18 352 168 189 194 195 210 231 221 212 211 208 214 216 242 233 31 332 288
5 360 356 354 348 336 322 324 324 328 329 338 341 344 346 345 336 330 320 313 0 356 21 9 90 125 85 179 2 6 207 184 185 201 202 223 219 232 220 240 214 198 240 160 178 229 269
4 2 356 351 347 335 324 317 317 317 320 321 330 335 339 337 333 333 313 280 293 33 19 28 170 314 52 352 349 357 193 186 192 201 194 229 347 303 235 231 219 226 214 112 216 181 167
6 3 358 355 346 337 329 322 314 314 309 311 321 328 331 335 337 334 320 290 259 284 342 15 34 2 85 5 95 105 106 96 185 77 198 356 1 301 269 323 249 211 160 175 179 174 120
1 3 1 359 350 344 334 326 316 312 308 306 314 324 329 335 336 334 341 311 235 272 329 1 36 13 113 333 45 105 30 140 138 65 60 75 48 308 250 230 218 216 186 196 145 194 135
2 0 3 2 357 351 341 335 321 317 311 304 310 320 327 334 339 342 353 29 200 291 307 284 93 120 29 350 31 54 48 116 133 136 85 139 129 280 237 198 199 194 212 198 147 189 183
358 359 3 3 2 359 352 346 333 320 317 305 305 314 323 330 336 334 353 33 172 189 57 58 338 124 331 280 66 67 42 79 104 207 177 207 177 222 231 215 228 202 224 192 134 164 151
359 357 3 1 3 2 359 351 345 335 322 308 305 309 318 327 331 336 349 34 68 323 113 100 323 110 167 195 106 72 89 96 128 198 171 166 210 217 224 217 226 234 217 171 69 139 153
351 354 1 360 360 0 2 357 349 343 327 315 308 310 317 327 325 342 58 71 297 121 239 79 291 235 173 161 61 88 153 140 261 215 209 172 198 221 196 203 253 243 242 180 130 154 259
338 344 353 355 359 360 359 0 356 347 338 325 315 314 321 329 326 328 89 6 263 178 189 182 188 101 132 220 57 176 199 167 39 254 191 189 221 191 165 188 37 259 304 127 130 134 162
337 339 344 349 353 358 358 360 0 354 342 330 323 320 321 332 308 330 329 334 192 228 50 340 152 158 158 115 148 72 191 194 230 142 222 201 199 171 154 65 356 307 354 126 153 153 108
330 340 340 342 346 351 355 357 357 352 343 325 320 322 324 358 285 275 324 308 204 351 23 18 92 89 130 131 248 152 206 213 309 168 123 76 315 22 54 37 181 281 169 130 147 103 59
314 328 338 338 338 344 348 352 354 351 345 335 309 308 300 295 311 310 335 232 342 62 230 31 342 100 174 147 165 191 200 206 265 94 39 89 61 127 341 79 356 3 192 86 42 33 190
290 316 326 333 339 342 341 347 357 355 351 341 313 286 296 238 278 306 226 245 60 262 34 313 239 260 154 299 153 185 204 177 62 315 167 130 281 353 329 67 100 267 323 156 149 166 197
288 288 310 317 333 341 351 352 356 356 351 355 12 87 199 253 288 176 246 46 143 0 345 332 292 256 132 149 276 192 64 55 33 12 26 127 60 167 40 27 57 331 294 339 110 22 84
294 293 288 317 326 342 349 353 355 356 354 0 57 230 157 296 189 215 87 98 45 353 334 285 350 325 49 1 319 0 68 351 11 52 228 294 99 12 105 241 185 208 307 25 348 116 135
286 302 299 302 320 340 348 354 354 356 358 18 158 252 209 321 166 232 84 116 82 85 2 332 349 338 73 353 323 41 47 53 12 325 293 318 114 145 251 29 46 321 278 263 100 80 127
277 324 329 322 320 335 348 353 355 357 4 28 304 268 205 153 327 66 55 5 229 33 180 263 255 330 351 352 14 57 73 32 347 298 335 28 115 108 82 92 35 303 304 306 101 263 38
265 304 345 349 346 342 347 354 356 360 1 352 318 324 214 160 62 105 184 114 11 4 42 345 14 351 315 24 55 37 76 7 5 31 21 346 83 92 6 23 147 262 178 334 14 35 189
251 276 310 341 352 354 351 356 358 360 -0 14 307 3 341 131 243 24 161 126 132 182 55 304 311 243 273 77 30 75 96 96 331 51 258 283 53 78 148 136 316 177 164 257 359 93 190
243 269 295 318 344 354 352 355 359 2 0 26 4 74 48 346 28 40 344 298 101 58 291 282 177 16 336 360 62 72 48 176 194 303 245 54 95 81 91 55 19 21 156 168 185 290 106
241 262 285 303 319 342 352 356 1 4 13 61 10 350 211 102 267 281 151 37 25 112 357 30 55 5 25 62 12 22 344 23 45 320 38 341 109 88 177 167 135 280 235 186 194 270 300
242 249 264 292 304 321 345 356 3 11 33 41 16 255 261 195 281 281 35 58 71 340 102 52 342 315 64 41 20 6 48 68 58 11 16 26 113 41 280 253 317 306 212 188 180 190 183
239 245 254 272 289 301 328 354 4 16 36 56 30 301 308 54 319 28 74 27 86 50 29 56 6 339 82 288 302 273 83 59 58 32 8 322 102 83 259 330 21 200 25 56 169 222 220
239 246 250 255 271 283 300 338 1 10 30 65 35 359 360 305 33 153 223 80 144 168 60 57 50 2 252 293 296 221 232 238 99 31 2 4 342 77 95 272 176 185 231 148 173 126 191
233 236 244 242 248 261 274 302 343 9 22 59 43 32 310 326 56 339 223 294 293 181 154 98 113 352 298 275 280 295 335 20 132 134 334 320 301 77 349 331 253 105 147 334 107 222 90
219 236 246 240 235 244 252 263 294 358 17 59 52 29 316 306 57 350 341 344 357 330 67 131 159 186 21 294 295 294 321 30 344 285 157 94 42 164 237 296 302 121 146 255 112 221 132
115 227 263 248 225 232 237 238 249 261 22 67 25 25 63 332 79 15 11 331 323 290 330 175 68 329 127 13 65 349 315 135 327 163 185 180 156 205 306 208 294 137 77 170 181 83 141
68 108 50 265 226 226 223 221 230 233 165 87 85 1 9 210 307 79 92 197 96 69 337 72 192 180 359 318 308 22 291 126 318 269 7 267 190 181 179 216 151 188 76 118 105 120 343